Location: Unspecified
(0.0000°N, 0.0000°E)
Time: 16:32:36
(UTC+00:00)

ATLAS 5 CENTAUR DEB - Pass Details

Date: 07 March 2026
Orbit: 8253 x 35273 km, 19.8° (Epoch: 17 April)

Event Time Altitude Azimuth Distance (km) Brightness Sun altitude
Rises 13:30:25 0° 283° (WNW) 13,200 ? 69.5°
Reaches altitude 10° 13:38:10 10° 280° (W) 12,361 ? 67.6°
Maximum altitude 23:11:17 86° 97° (E) 27,630 ? -74.3°
Enters shadow 23:17:31 86° 87° (E) 27,118 ? -75.8°
Exits shadow 00:27:16 74° 48° (NE) 20,376 ? -83.6°
Drops below altitude 10° 01:55:27 10° 66° (ENE) 13,897 ? -63.4°
Sets 02:04:04 0° 69° (ENE) 14,205 ? -61.3°
